Radiation Dose at Monitoring Post of Fukushima Daini Nuclear Power Station
Date,Time,MP-1(microSv/h),MP-2(microSv/h),MP-3(microSv/h),MP-4(microSv/h),MP-5(microSv/h),MP-6(microSv/h),MP-7(microSv/h),Wind Direction,Wind Velocity(m/s),Rain
2018/10/12,00:00,0.301,0.189,0.304,0.290,0.280,0.153,0.094,north,5.9,Yes
2018/10/12,00:10,0.300,0.190,0.305,0.292,0.279,0.153,0.094,north,5.6,No
2018/10/12,00:20,0.301,0.188,0.304,0.290,0.281,0.153,0.095,north,6.3,Yes
2018/10/12,00:30,0.300,0.189,0.306,0.293,0.280,0.153,0.095,north,5.5,Yes
2018/10/12,00:40,0.302,0.191,0.303,0.292,0.281,0.153,0.095,north,5.4,No
2018/10/12,00:50,0.299,0.189,0.306,0.292,0.278,0.153,0.095,north-northeast,5.2,Yes
2018/10/12,01:00,0.301,0.190,0.302,0.291,0.278,0.151,0.095,north,4.6,No
2018/10/12,01:10,0.301,0.189,0.305,0.292,0.278,0.153,0.094,north,4.0,No
2018/10/12,01:20,0.300,0.189,0.302,0.291,0.279,0.152,0.094,north,4.2,Yes
2018/10/12,01:30,0.299,0.187,0.303,0.290,0.280,0.152,0.093,north,3.8,Yes
2018/10/12,01:40,0.298,0.189,0.303,0.290,0.279,0.151,0.095,north,4.5,Yes
2018/10/12,01:50,0.299,0.187,0.303,0.290,0.279,0.153,0.093,north,4.3,Yes
2018/10/12,02:00,0.300,0.190,0.302,0.290,0.278,0.151,0.094,north,4.8,Yes
2018/10/12,02:10,0.299,0.187,0.303,0.289,0.279,0.153,0.094,north-northwest,4.5,Yes
2018/10/12,02:20,0.299,0.188,0.301,0.289,0.278,0.152,0.094,north-northwest,4.1,Yes
2018/10/12,02:30,0.299,0.187,0.304,0.291,0.278,0.152,0.095,north-northwest,3.2,No
2018/10/12,02:40,0.299,0.189,0.302,0.290,0.278,0.151,0.094,north-northwest,3.4,No
2018/10/12,02:50,0.297,0.187,0.305,0.291,0.279,0.152,0.093,north-northwest,3.4,No
2018/10/12,03:00,0.299,0.187,0.301,0.288,0.278,0.152,0.093,north,1.9,No
2018/10/12,03:10,0.298,0.186,0.303,0.291,0.279,0.150,0.094,-,CALM,No
2018/10/12,03:20,0.298,0.187,0.301,0.288,0.277,0.150,0.093,north-northwest,1.1,No
2018/10/12,03:30,0.297,0.187,0.303,0.291,0.278,0.150,0.093,north-northeast,1.7,No
2018/10/12,03:40,0.297,0.186,0.301,0.289,0.276,0.150,0.093,north,0.9,No
2018/10/12,03:50,0.298,0.188,0.303,0.291,0.279,0.150,0.094,north,2.0,No
2018/10/12,04:00,0.298,0.186,0.301,0.289,0.276,0.150,0.093,north-northeast,1.5,No
2018/10/12,04:10,0.300,0.187,0.304,0.290,0.279,0.151,0.092,north-northwest,1.3,No
2018/10/12,04:20,0.297,0.185,0.300,0.289,0.276,0.150,0.093,north-northeast,1.7,Yes
2018/10/12,04:30,0.299,0.188,0.304,0.291,0.278,0.150,0.093,north-northeast,2.1,Yes
2018/10/12,04:40,0.298,0.187,0.301,0.288,0.277,0.151,0.093,north-northeast,1.0,No
2018/10/12,04:50,0.300,0.187,0.306,0.289,0.280,0.150,0.094,north-northeast,1.3,Yes
2018/10/12,05:00,0.297,0.186,0.303,0.288,0.277,0.152,0.094,north,2.1,Yes
2018/10/12,05:10,0.300,0.189,0.304,0.292,0.278,0.151,0.095,north,2.1,Yes
2018/10/12,05:20,0.299,0.189,0.302,0.290,0.280,0.152,0.096,north,2.3,Yes
2018/10/12,05:30,0.300,0.189,0.303,0.292,0.281,0.152,0.096,north-northeast,2.5,Yes
2018/10/12,05:40,0.299,0.190,0.302,0.289,0.277,0.154,0.096,north-northeast,2.8,No
2018/10/12,05:50,0.301,0.190,0.305,0.292,0.281,0.151,0.096,northeast,2.0,Yes
2018/10/12,06:00,0.298,0.189,0.301,0.289,0.279,0.152,0.095,northeast,2.1,Yes
2018/10/12,06:10,0.300,0.190,0.304,0.292,0.280,0.154,0.096,north,1.0,Yes
2018/10/12,06:20,0.301,0.190,0.302,0.291,0.281,0.155,0.097,north-northeast,2.4,Yes
2018/10/12,06:30,0.302,0.191,0.305,0.293,0.282,0.154,0.099,north-northeast,2.6,Yes
2018/10/12,06:40,0.302,0.190,0.303,0.292,0.281,0.154,0.098,north,4.7,Yes
2018/10/12,06:50,0.301,0.190,0.304,0.293,0.281,0.154,0.097,north,5.4,No
2018/10/12,07:00,0.300,0.191,0.304,0.291,0.280,0.153,0.096,north,5.3,No
2018/10/12,07:10,0.301,0.189,0.303,0.293,0.280,0.153,0.096,north,6.1,No
2018/10/12,07:20,0.299,0.189,0.303,0.288,0.279,0.153,0.095,north,6.3,No
2018/10/12,07:30,0.300,0.187,0.302,0.290,0.279,0.151,0.095,north,5.6,No
2018/10/12,07:40,0.299,0.189,0.303,0.289,0.278,0.151,0.094,north-northwest,4.9,No
2018/10/12,07:50,0.299,0.186,0.302,0.291,0.277,0.152,0.094,north-northwest,5.0,No
2018/10/12,08:00,0.297,0.187,0.302,0.286,0.279,0.150,0.093,north-northwest,4.2,No
2018/10/12,08:10,0.299,0.187,0.301,0.290,0.277,0.151,0.094,north-northwest,4.7,Yes
2018/10/12,08:20,0.299,0.187,0.301,0.287,0.281,0.150,0.094,north,5.1,Yes
2018/10/12,08:30,0.301,0.187,0.302,0.289,0.276,0.151,0.094,north-northwest,5.2,Yes
2018/10/12,08:40,0.298,0.188,0.302,0.288,0.281,0.151,0.094,north,5.9,Yes
2018/10/12,08:50,0.301,0.188,0.304,0.290,0.277,0.152,0.095,north,6.3,Yes
2018/10/12,09:00,0.298,0.189,0.302,0.290,0.280,0.151,0.095,north,7.5,Yes
2018/10/12,09:10,0.300,0.189,0.302,0.290,0.278,0.151,0.096,north,7.9,Yes
2018/10/12,09:20,0.299,0.189,0.301,0.290,0.279,0.153,0.095,north-northwest,8.1,Yes
2018/10/12,09:30,0.302,0.189,0.303,0.289,0.280,0.152,0.095,north-northwest,8.2,Yes
2018/10/12,09:40,0.300,0.190,0.303,0.292,0.282,0.152,0.095,north-northwest,7.0,Yes
2018/10/12,09:50,0.302,0.190,0.303,0.291,0.279,0.153,0.095,north,7.4,Yes
2018/10/12,10:00,0.300,0.189,0.303,0.290,0.280,0.153,0.095,north,5.5,Yes
2018/10/12,10:10,0.302,0.190,0.302,0.290,0.280,0.152,0.095,north,5.5,Yes
2018/10/12,10:20,0.301,0.189,0.302,0.290,0.282,0.153,0.095,north,5.9,Yes
2018/10/12,10:30,0.302,0.189,0.302,0.289,0.279,0.152,0.095,north,5.0,Yes
2018/10/12,10:40,0.299,0.188,0.302,0.290,0.281,0.153,0.095,north,6.0,Yes
2018/10/12,10:50,0.302,0.190,0.301,0.289,0.279,0.151,0.095,north,5.4,Yes
2018/10/12,11:00,0.299,0.188,0.303,0.290,0.281,0.153,0.095,north,5.0,No
2018/10/12,11:10,0.301,0.189,0.301,0.288,0.279,0.150,0.094,north-northwest,4.6,No
2018/10/12,11:20,0.298,0.187,0.303,0.289,0.278,0.152,0.094,north-northwest,5.2,No
2018/10/12,11:30,0.300,0.187,0.300,0.288,0.279,0.151,0.094,north-northwest,3.9,No
2018/10/12,11:40,0.298,0.186,0.303,0.289,0.277,0.150,0.093,north-northwest,3.7,No
2018/10/12,11:50,0.299,0.187,0.299,0.287,0.279,0.151,0.094,north-northwest,3.0,No
2018/10/12,12:00,0.299,0.186,0.302,0.289,0.276,0.150,0.092,north-northwest,3.8,No
2018/10/12,12:10,0.297,0.187,0.299,0.288,0.278,0.150,0.093,north-northwest,4.0,No
2018/10/12,12:20,0.299,0.186,0.301,0.289,0.277,0.149,0.092,north-northwest,5.7,No
2018/10/12,12:30,0.297,0.185,0.300,0.286,0.277,0.149,0.093,northwest,6.5,No
2018/10/12,12:40,0.300,0.186,0.301,0.289,0.279,0.150,0.093,north-northwest,5.7,No
2018/10/12,12:50,0.296,0.186,0.300,0.287,0.277,0.149,0.092,north-northwest,5.0,No
2018/10/12,13:00,0.301,0.186,0.300,0.289,0.279,0.150,0.093,north,5.8,No
2018/10/12,13:10,0.298,0.186,0.301,0.287,0.275,0.149,0.091,north,6.3,No
2018/10/12,13:20,0.300,0.187,0.300,0.288,0.278,0.150,0.092,north,5.8,No
2018/10/12,13:30,0.298,0.186,0.301,0.290,0.278,0.149,0.092,north,6.4,No
2018/10/12,13:40,0.299,0.187,0.300,0.287,0.277,0.149,0.092,north,6.0,No
2018/10/12,13:50,0.298,0.185,0.301,0.289,0.279,0.150,0.092,north,7.0,No
2018/10/12,14:00,0.297,0.186,0.299,0.287,0.276,0.150,0.092,north,7.1,No
2018/10/12,14:10,0.300,0.185,0.301,0.289,0.277,0.150,0.092,north,8.6,No
2018/10/12,14:20,0.298,0.186,0.300,0.286,0.279,0.150,0.092,north-northwest,5.4,No
2018/10/12,14:30,0.300,0.186,0.301,0.290,0.275,0.149,0.092,north-northwest,5.6,No
2018/10/12,14:40,0.299,0.187,0.302,0.288,0.278,0.151,0.093,northwest,5.7,No
2018/10/12,14:50,0.301,0.187,0.302,0.288,0.277,0.149,0.092,north-northwest,5.2,No
2018/10/12,15:00,0.300,0.186,0.303,0.289,0.277,0.148,0.093,north-northwest,5.2,No
2018/10/12,15:10,0.299,0.188,0.299,0.289,0.279,0.148,0.092,northwest,4.1,No
2018/10/12,15:20,0.301,0.185,0.303,0.288,0.276,0.148,0.092,west-northwest,4.0,No
2018/10/12,15:30,0.300,0.189,0.301,0.288,0.279,0.150,0.092,north-northwest,3.5,No
2018/10/12,15:40,0.301,0.187,0.304,0.289,0.277,0.149,0.092,north,4.3,No
2018/10/12,15:50,0.299,0.187,0.300,0.289,0.278,0.149,0.093,north,2.1,No
2018/10/12,16:00,0.302,0.187,0.303,0.291,0.280,0.151,0.092,north,2.7,No
2018/10/12,16:10,0.300,0.188,0.301,0.288,0.276,0.149,0.092,north,4.6,No
2018/10/12,16:20,0.303,0.187,0.303,0.291,0.280,0.151,0.092,north-northwest,2.2,No
2018/10/12,16:30,0.302,0.187,0.301,0.288,0.277,0.150,0.092,north-northwest,3.2,No
2018/10/12,16:40,0.302,0.186,0.304,0.291,0.280,0.151,0.093,north-northwest,3.3,No
2018/10/12,16:50,0.301,0.189,0.302,0.289,0.277,0.150,0.093,north,3.7,No
2018/10/12,17:00,0.302,0.187,0.303,0.292,0.280,0.150,0.092,north,4.6,No
2018/10/12,17:10,0.300,0.188,0.301,0.289,0.279,0.150,0.092,north,3.5,No
2018/10/12,17:20,0.301,0.187,0.303,0.290,0.281,0.150,0.092,north,4.1,No
2018/10/12,17:30,0.300,0.187,0.301,0.290,0.277,0.151,0.093,north-northwest,3.1,No
2018/10/12,17:40,0.301,0.187,0.303,0.289,0.280,0.151,0.092,north,2.4,No
2018/10/12,17:50,0.301,0.186,0.302,0.291,0.278,0.150,0.092,north-northeast,3.5,No
2018/10/12,18:00,0.303,0.188,0.302,0.289,0.279,0.150,0.093,north-northeast,2.1,No
2018/10/12,18:10,0.301,0.187,0.303,0.291,0.279,0.151,0.093,north-northeast,1.5,No
2018/10/12,18:20,0.302,0.186,0.302,0.290,0.278,0.150,0.092,north-northeast,2.3,No
2018/10/12,18:30,0.301,0.187,0.303,0.292,0.281,0.151,0.093,north,5.3,No
2018/10/12,18:40,0.303,0.187,0.302,0.289,0.276,0.150,0.093,north,4.8,No
2018/10/12,18:50,0.301,0.188,0.303,0.290,0.280,0.150,0.092,north,6.0,No
2018/10/12,19:00,0.302,0.187,0.302,0.291,0.279,0.150,0.093,north,5.9,No
2018/10/12,19:10,0.301,0.187,0.302,0.290,0.278,0.150,0.092,north,5.6,No
2018/10/12,19:20,0.300,0.186,0.302,0.292,0.277,0.150,0.093,north,4.5,No
2018/10/12,19:30,0.302,0.186,0.302,0.289,0.279,0.150,0.093,north,3.5,No
2018/10/12,19:40,0.300,0.188,0.304,0.292,0.280,0.150,0.092,north,1.1,No
2018/10/12,19:50,0.302,0.187,0.301,0.290,0.278,0.151,0.093,north,2.2,No
2018/10/12,20:00,0.301,0.189,0.304,0.290,0.279,0.150,0.093,north-northeast,3.5,No
2018/10/12,20:10,0.301,0.188,0.302,0.290,0.278,0.151,0.092,north-northeast,2.5,No
2018/10/12,20:20,0.302,0.188,0.303,0.289,0.280,0.150,0.093,north-northeast,3.1,No
2018/10/12,20:30,0.302,0.188,0.303,0.292,0.278,0.150,0.093,north-northeast,2.5,No
2018/10/12,20:40,0.302,0.188,0.302,0.289,0.279,0.151,0.092,north,2.3,No
2018/10/12,20:50,0.300,0.187,0.304,0.291,0.278,0.150,0.093,north,4.0,No
2018/10/12,21:00,0.302,0.188,0.303,0.291,0.278,0.150,0.093,north,3.5,No
2018/10/12,21:10,0.302,0.187,0.305,0.292,0.278,0.151,0.093,north,3.4,No
2018/10/12,21:20,0.303,0.188,0.303,0.290,0.278,0.151,0.093,north,4.8,No
2018/10/12,21:30,0.300,0.186,0.304,0.291,0.280,0.150,0.093,north,3.6,No
2018/10/12,21:40,0.303,0.187,0.304,0.291,0.278,0.151,0.093,north-northwest,2.9,No
2018/10/12,21:50,0.301,0.187,0.301,0.291,0.280,0.151,0.093,north-northwest,4.3,No
2018/10/12,22:00,0.301,0.187,0.303,0.291,0.277,0.151,0.093,north-northwest,5.4,No
2018/10/12,22:10,0.301,0.188,0.303,0.290,0.280,0.150,0.093,north-northwest,5.7,No
2018/10/12,22:20,0.301,0.188,0.302,0.290,0.279,0.150,0.094,north-northwest,6.1,No
2018/10/12,22:30,0.303,0.187,0.302,0.291,0.278,0.151,0.093,north-northwest,6.4,No
2018/10/12,22:40,0.301,0.187,0.302,0.290,0.279,0.151,0.092,north-northwest,5.3,No
2018/10/12,22:50,0.302,0.187,0.303,0.291,0.279,0.151,0.093,northwest,4.8,No
2018/10/12,23:00,0.304,0.188,0.302,0.290,0.280,0.151,0.091,northwest,3.9,No
2018/10/12,23:10,0.301,0.188,0.304,0.289,0.277,0.151,0.093,north-northwest,4.4,No
2018/10/12,23:20,0.302,0.187,0.303,0.291,0.281,0.151,0.093,north-northwest,4.3,No
2018/10/12,23:30,0.301,0.187,0.302,0.290,0.278,0.152,0.092,north-northwest,4.4,No
2018/10/12,23:40,0.302,0.187,0.305,0.291,0.280,0.150,0.094,north-northwest,3.5,No
2018/10/12,23:50,0.300,0.188,0.301,0.289,0.278,0.151,0.093,north-northwest,6.4,No
